OPS 4682 DEB, 18670

Orbit data source: Space-Track

OPS 4682 DEB, 18670 is space debris in LEO originally from a launch on Sat, 03 Apr 1965 UTC launched from the Air Force Western Test Range (AFWTR). Debris objects in space refer to the collection of defunct objects orbiting the Earth. Examples of debris include non-operational satellites, rocket bodies, and fragments generated from explosions, collisions, or faulty payload assembly.

Loading next visibility...
Identifier
18670, 1965-027AG
Orbit
LEO
Country
Flag of USUS
Related business
Manufacturer
Unknown
Mission
Spacecraft
Bus & Motor
Unknown
Mass
Unknown
Launch date (UTC)
1965-04-03 (61 years ago)
Launch vehicle
Unknown
Launch site
Air Force Western Test Range (AFWTR)
Object type
Payload
Rocket body
Debris
Shape & HBR
Unknown shape, 0.1 m
Radar Cross Section
Small (<0.1 m²)

Expand to show TLE details & history
Last TLE update: 3 days ago

TLE from 3 days ago
0 OPS 4682 DEB
1 18670U 65027AG  26035.87056543  .00000764  00000-0  26163-2 0  9993
2 18670  90.2406 353.4111 0023966 118.3289 242.0253 12.97164316645611
Epoch: 2026-02-04T20:53Z
TLE epoch observation values (Epoch: 2026-02-04T20:53:36.853Z)
Latitude
0.00001°
Longitude
-95.02339°
Altitude
1,284.734 km
Speed
7.21 km/s
True Right ascension
23h 33m 38s
True Declination
0° 00' 00"
Sunlit
Object was in daylight at epoch
Visualization orbit readout
Latitude
Unknown
Longitude
Unknown
Altitude
Unknown
Speed
Unknown
Apparent Right ascension
Unknown
Apparent Declination
Unknown
Sunlit
N/A
Visualization observer readout
Local Sidereal Time
22:14:10
Azimuth
Unknown
Elevation
Unknown
Doppler factor
Unknown
Orbital elements
Apogee altitude
1,288.679 km
Perigee altitude
1,252.018 km
Semi-major axis
7,648.485 km
Eccentricity
0.0024
Inclination
90.2406°
RAAN
353.4111°
Arg. of periapsis
118.3289°
True anomaly
241.7831°
Mean anomaly
242.0253°
Eccentric anomaly
241.90417°
Mean motion
3.24474 °/min
Orbital period
110.95 mins
BSTAR
0.0026163
Loading maneuver chart data...
Computing Atmospheric mass density...
Loading historical data...
Loading historical data...
Loading historical data...
Loading historical data...
Loading historical data...
Loading historical data...
Loading historical data...

Documentation

Showing up to 5 results
|